Flag for Germany Weather past 2 weeks in Willich, North Rhine-Westphalia, Germany

Now
54 °F

Sunny.


Feels Like: 53 °F
Forecast: 41 / 61 °F
Wind: 3 mph from North

Location: Monchengladbach Airport

Current Time: Apr 21, 2015 at 11:13:05 AM

Latest Report: Apr 21, 2015 at 10:20 AM


Visibility: 10 mi

Pressure: 30.45 "Hg

Humidity: 72%

Dew point: 45 °F

Location of WillichLocation

Historic Weather in Willich — Graph

°F

Willich temperature yesterday

Maximum temperature yesterday: 66 °F (at 3:50 PM)
Minimum temperature yesterday: 43 °F (at 7:50 AM)
Average temperature yesterday: 60 °F

Past Weeks' High & Low Weather Summary

 TemperatureHumidityPressure
High75 °F (Apr 15, 3:20 PM)100% (Apr 6, 10:50 AM)30.66 "Hg (Apr 6, 10:50 AM)
Low32 °F (Apr 7, 7:50 AM)27% (Apr 10, 2:50 PM)29.92 "Hg (Apr 15, 6:50 PM)
Average55 °F60%30.27 "Hg
* Reported Apr 6 9:20 AM — Apr 21 9:50 AM, Willich, Weather by CustomWeather, © 2015

Note: Actual official high and low records may vary slightly from our data, if they occured in-between our weather recording intervals... More about our weather records

Advertising

Willich weather history for previous 24 hours

 ConditionsComfort  
Time TempWeatherWind HumidityBarometerVisibility
9:50 AM
Tue, Apr 21
52 °FPassing clouds.5 mph77%30.45 "HgN/A
9:20 AM50 °FPassing clouds.5 mph76%30.45 "HgN/A
8:50 AM48 °FSunny.3 mph82%30.45 "Hg10 mi
8:20 AM46 °FSunny.5 mph82%30.45 "Hg10 mi
7:50 AM45 °FSunny.2 mph87%30.42 "Hg10 mi
7:50 PM
Mon, Apr 20
63 °FPassing clouds.8 mph42%30.33 "HgN/A
7:20 PM64 °FClear.8 mph37%30.33 "Hg10 mi
6:50 PM64 °FPassing clouds.9 mph37%30.33 "HgN/A
6:20 PM66 °FPassing clouds.8 mph32%30.33 "HgN/A
5:50 PM66 °FPassing clouds.9 mph30%30.33 "HgN/A
5:20 PM66 °FPassing clouds.9 mph32%30.33 "HgN/A
4:50 PM66 °FPassing clouds.10 mph32%30.33 "HgN/A
4:20 PM66 °FPassing clouds.9 mph32%30.33 "HgN/A
3:50 PM66 °FPassing clouds.8 mph37%30.33 "HgN/A
3:20 PM64 °FPassing clouds.8 mph40%30.33 "HgN/A
2:50 PM64 °FClear.8 mph32%30.33 "Hg10 mi
2:20 PM64 °FClear.9 mph32%30.33 "Hg10 mi
1:50 PM63 °FPassing clouds.8 mph37%30.36 "HgN/A
1:20 PM63 °FPassing clouds.10 mph39%30.36 "HgN/A
12:50 PM61 °FPassing clouds.10 mph36%30.36 "HgN/A
12:20 PM61 °FSunny.10 mph36%30.36 "Hg10 mi
11:50 AM59 °FPassing clouds.10 mph42%30.36 "HgN/A
11:20 AM59 °FPassing clouds.7 mph45%30.36 "HgN/A
Weather by CustomWeather, © 2015

See weather overviewHow to use our weather pages